SV1JCZ-13 Weather Reports


time (UTC)temp
C
wind
direction
speed
KPH
gust
KPH
rain 1hr
cm
rain 24hr
cm
rain mn
cm
humidity
%
barometer
mb
20260506215722 16 293 0.0 0.0 0.00 0.00 0.00 50
20260506215122 16 293 0.0 0.0 0.00 0.00 0.00 50
20260506214923 16 293 0.0 0.0 0.00 0.00 0.00 49
20260506214522 16 293 0.0 0.0 0.00 0.00 0.00 49
20260506213922 16 293 0.0 0.0 0.00 0.00 0.00 53
20260506213322 16 293 0.0 0.0 0.00 0.00 0.00 53
20260506212722 16 293 0.0 0.0 0.00 0.00 0.00 53
20260506212122 16 293 0.0 0.0 0.00 0.00 0.00 52
20260506211522 16 293 0.0 0.0 0.00 0.00 0.00 52
20260506210922 16 293 0.0 0.0 0.00 0.00 0.00 51
20260506210322 16 293 0.0 0.0 0.00 0.00 0.00 51
20260506205722 16 293 0.0 0.0 0.00 0.00 0.00 51
20260506205122 16 293 0.0 0.0 0.00 0.00 0.00 50
20260506204923 16 293 0.0 0.0 0.00 0.00 0.00 50
20260506204522 16 293 0.0 0.0 0.00 0.00 0.00 50
20260506203922 16 293 0.0 0.0 0.00 0.00 0.00 50
20260506203322 16 293 0.0 0.0 0.00 0.00 0.00 49
20260506202923 16 293 0.0 0.0 0.00 0.00 0.00 50
20260506202722 17 293 0.0 0.0 0.00 0.00 0.00 49
20260506202122 17 293 0.0 0.0 0.00 0.00 0.00 49
20260506201522 17 293 0.0 0.0 0.00 0.00 0.00 48
20260506200922 17 293 0.0 8.0 0.00 0.00 0.00 48
20260506200322 17 57 0.0 0.0 0.00 0.00 0.00 45
20260506195722 17 57 0.0 6.4 0.00 0.00 0.00 50
20260506195122 17 70 0.0 0.0 0.00 0.00 0.00 50
20260506194923 17 70 0.0 0.0 0.00 0.00 0.00 50
20260506194522 17 70 0.0 0.0 0.00 0.00 0.00 50
20260506193922 17 70 0.0 0.0 0.00 0.00 0.00 49
20260506193322 17 70 0.0 0.0 0.00 0.00 0.00 49
20260506192923 18 70 0.0 0.0 0.00 0.00 0.00 49
20260506192722 18 70 0.0 0.0 0.00 0.00 0.00 48
20260506192122 18 70 0.0 0.0 0.00 0.00 0.00 47
20260506191522 18 70 0.0 0.0 0.00 0.00 0.00 46
20260506190922 18 70 0.0 4.8 0.00 0.00 0.00 45
20260506190322 18 168 0.0 6.4 0.00 0.00 0.00 44
20260506185722 18 77 0.0 0.0 0.00 0.00 0.00 44
20260506185122 18 77 0.0 0.0 0.00 0.00 0.00 43
20260506184522 18 77 0.0 8.0 0.00 0.00 0.00 44
20260506183922 18 140 0.0 6.4 0.00 0.00 0.00 43
20260506183322 18 42 0.0 8.0 0.00 0.00 0.00 42
20260506182722 19 92 0.0 8.0 0.00 0.00 0.00 41
20260506182122 19 126 0.0 6.4 0.00 0.00 0.00 41
20260506181522 19 133 0.0 0.0 0.00 0.00 0.00 42
20260506180922 19 133 0.0 4.8 0.00 0.00 0.00 42
20260506180322 19 88 0.0 6.4 0.00 0.00 0.00 40
20260506175722 20 97 0.0 9.7 0.00 0.00 0.00 40
20260506175122 20 49 0.0 9.7 0.00 0.00 0.00 40
20260506174923 20 49 4.8 9.7 0.00 0.00 0.00 39
20260506174522 20 175 0.0 8.0 0.00 0.00 0.00 39
20260506173922 20 102 0.0 6.4 0.00 0.00 0.00 40
20260506173322 20 132 0.0 0.0 0.00 0.00 0.00 41
20260506172722 20 132 0.0 14.5 0.00 0.00 0.00 39
20260506172123 21 130 0.0 4.8 0.00 0.00 0.00 38
20260506171522 21 147 0.0 6.4 0.00 0.00 0.00 38
20260506170922 21 115 0.0 0.0 0.00 0.00 0.00 40
20260506170322 21 115 0.0 0.0 0.00 0.00 0.00 36
20260506165722 21 115 0.0 8.0 0.00 0.00 0.00 36
20260506165123 22 125 0.0 0.0 0.00 0.00 0.00 35
20260506164522 22 125 3.2 8.0 0.00 0.00 0.00 34
20260506163923 23 106 0.0 9.7 0.00 0.00 0.00 35
20260506163322 23 23 0.0 0.0 0.00 0.00 0.00 34
20260506162924 24 23 0.0 0.0 0.00 0.00 0.00 36
20260506162723 24 23 0.0 0.0 0.00 0.00 0.00 38
20260506162122 24 23 0.0 0.0 0.00 0.00 0.00 40
20260506161523 25 23 0.0 0.0 0.00 0.00 0.00 39
20260506160923 25 23 0.0 0.0 0.00 0.00 0.00 40
20260506160323 25 23 0.0 0.0 0.00 0.00 0.00 35
20260506155723 25 23 0.0 0.0 0.00 0.00 0.00 38
20260506155123 24 23 0.0 0.0 0.00 0.00 0.00 41
20260506154924 24 23 0.0 0.0 0.00 0.00 0.00 44
20260506154523 23 23 0.0 0.0 0.00 0.00 0.00 46
20260506153923 23 23 0.0 0.0 0.00 0.00 0.00 46
20260506153323 23 23 0.0 0.0 0.00 0.00 0.00 47
20260506152924 23 23 0.0 0.0 0.00 0.00 0.00 47
20260506152723 23 23 0.0 0.0 0.00 0.00 0.00 47
20260506152123 23 23 0.0 0.0 0.00 0.00 0.00 48
20260506151523 23 23 0.0 0.0 0.00 0.00 0.00 47
20260506150923 23 23 0.0 0.0 0.00 0.00 0.00 44
20260506150323 23 23 0.0 0.0 0.00 0.00 0.00 43
20260506145723 23 23 0.0 0.0 0.00 0.00 0.00 42
20260506145123 23 23 0.0 0.0 0.00 0.00 0.00 43
20260506144924 23 23 0.0 0.0 0.00 0.00 0.00 42
20260506144523 23 23 0.0 0.0 0.00 0.00 0.00 42
20260506143923 23 23 0.0 0.0 0.00 0.00 0.00 42
20260506143323 23 23 0.0 0.0 0.00 0.00 0.00 41
20260506142924 23 23 0.0 0.0 0.00 0.00 0.00 41
20260506142723 23 23 0.0 0.0 0.00 0.00 0.00 41
20260506142123 23 23 0.0 0.0 0.00 0.00 0.00 40
20260506141523 23 23 0.0 0.0 0.00 0.00 0.00 39
20260506140923 23 23 0.0 0.0 0.00 0.00 0.00 39
20260506140323 23 23 0.0 0.0 0.00 0.00 0.00 39
20260506135723 23 23 0.0 0.0 0.00 0.00 0.00 39
20260506135123 24 23 0.0 6.4 0.00 0.00 0.00 38
20260506134924 24 23 0.0 6.4 0.00 0.00 0.00 38
20260506134523 24 329 0.0 4.8 0.00 0.00 0.00 38
20260506133923 25 275 0.0 0.0 0.00 0.00 0.00 37
20260506133323 25 275 0.0 0.0 0.00 0.00 0.00 37
20260506132924 25 275 0.0 0.0 0.00 0.00 0.00 37
20260506132723 25 275 0.0 0.0 0.00 0.00 0.00 37
20260506132123 24 275 0.0 6.4 0.00 0.00 0.00 39
20260506131523 23 291 0.0 4.8 0.00 0.00 0.00 39
20260506130923 23 291 0.0 6.4 0.00 0.00 0.00 40
20260506130323 23 358 0.0 8.0 0.00 0.00 0.00 40
20260506125723 23 320 4.8 9.7 0.00 0.00 0.00 40
20260506125123 23 307 0.0 4.8 0.00 0.00 0.00 41
20260506124924 23 307 4.8 4.8 0.00 0.00 0.00 40
20260506124523 23 312 0.0 3.2 0.00 0.00 0.00 41
20260506123923 23 312 0.0 6.4 0.00 0.00 0.00 39
20260506123323 23 267 0.0 6.4 0.00 0.00 0.00 39
20260506122924 23 267 0.0 6.4 0.00 0.00 0.00 39
20260506122723 23 358 0.0 8.0 0.00 0.00 0.00 39
20260506122123 23 307 0.0 8.0 0.00 0.00 0.00 38
20260506121523 23 358 0.0 12.9 0.00 0.00 0.00 38
20260506120923 23 1 0.0 9.7 0.00 0.00 0.00 38
20260506120323 23 323 0.0 14.5 0.00 0.00 0.00 39
20260506115723 23 302 0.0 11.3 0.00 0.00 0.00 39
20260506115123 23 11 0.0 12.9 0.00 0.00 0.00 39
20260506114924 23 334 9.7 12.9 0.00 0.00 0.00 38
20260506114524 23 358 0.0 11.3 0.00 0.00 0.00 40
20260506113923 23 43 0.0 4.8 0.00 0.00 0.00 41
20260506113323 22 43 0.0 12.9 0.00 0.00 0.00 41
20260506112924 22 303 0.0 3.2 0.00 0.00 0.00 42
20260506112723 22 303 0.0 12.9 0.00 0.00 0.00 42
20260506112123 22 1 6.4 9.7 0.00 0.00 0.00 43
20260506111523 22 254 0.0 12.9 0.00 0.00 0.00 45
20260506110923 22 271 0.0 11.3 0.00 0.00 0.00 46
20260506110323 21 16 0.0 14.5 0.00 0.00 0.00 46
20260506105723 21 295 0.0 0.0 0.00 0.00 0.00 47
20260506105123 21 295 0.0 11.3 0.00 0.00 0.00 44
20260506104924 21 352 6.4 11.3 0.00 0.00 0.00 44
20260506104523 21 313 3.2 12.9 0.00 0.00 0.00 42
20260506103923 21 278 8.0 9.7 0.00 0.00 0.00 44
20260506103323 21 28 3.2 8.0 0.00 0.00 0.00 46
20260506102924 21 265 0.0 20.9 0.00 0.00 0.00 43
20260506102723 21 358 0.0 20.9 0.00 0.00 0.00 45
20260506102123 21 309 0.0 0.0 0.00 0.00 0.00 47
20260506101523 21 309 0.0 11.3 0.00 0.00 0.00 48
20260506100923 21 9 6.4 8.0 0.00 0.00 0.00 49
20260506100323 21 347 6.4 6.4 0.00 0.00 0.00 50
20260506095723 21 358 0.0 6.4 0.00 0.00 0.00 48
20260506095123 21 337 8.0 9.7 0.00 0.00 0.00 48
20260506094924 21 163 0.0 4.8 0.00 0.00 0.00 44
20260506094523 21 255 0.0 6.4 0.00 0.00 0.00 46
20260506093923 21 296 0.0 12.9 0.00 0.00 0.00 43
20260506093323 21 358 0.0 3.2 0.00 0.00 0.00 41
20260506092723 21 358 0.0 6.4 0.00 0.00 0.00 42
20260506092123 21 330 0.0 9.7 0.00 0.00 0.00 44
20260506091523 21 358 0.0 0.0 0.00 0.00 0.00 44
20260506090923 21 358 0.0 11.3 0.00 0.00 0.00 43
20260506090323 21 341 0.0 0.0 0.00 0.00 0.00 45
20260506085723 21 341 0.0 0.0 0.00 0.00 0.00 44
20260506085123 21 341 0.0 0.0 0.00 0.00 0.00 44
20260506084924 21 341 0.0 0.0 0.00 0.00 0.00 43
20260506084523 21 341 0.0 1.6 0.00 0.00 0.00 41
20260506083923 20 341 0.0 1.6 0.00 0.00 0.00 40
20260506083323 20 341 0.0 8.0 0.00 0.00 0.00 39
20260506082925 20 322 6.4 6.4 0.00 0.00 0.00 39
20260506082723 20 340 0.0 1.6 0.00 0.00 0.00 40
20260506082123 20 340 0.0 6.4 0.00 0.00 0.00 39
20260506081523 20 7 0.0 0.0 0.00 0.00 0.00 39
20260506080923 20 7 0.0 8.0 0.00 0.00 0.00 38
20260506080323 20 295 0.0 6.4 0.00 0.00 0.00 38
20260506073323 18 71 0.0 8.0 0.00 0.00 0.00 44
20260506072925 18 264 0.0 0.0 0.00 0.00 0.00 45
20260506072723 18 264 0.0 0.0 0.00 0.00 0.00 44
20260506072123 18 264 0.0 0.0 0.00 0.00 0.00 46
20260506071523 18 264 0.0 0.0 0.00 0.00 0.00 43
20260506070923 18 264 0.0 0.0 0.00 0.00 0.00 43
20260506070323 18 264 0.0 4.8 0.00 0.00 0.00 46
20260506062124 16 90 0.0 0.0 0.00 0.00 0.00 56
20260506061524 16 90 0.0 0.0 0.00 0.00 0.00 56
20260506060924 15 90 0.0 0.0 0.00 0.00 0.00 62
20260506060324 15 90 0.0 0.0 0.00 0.00 0.00 64
20260506050924 13 90 0.0 0.0 0.00 0.00 0.00 69
20260506050324 13 90 0.0 0.0 0.00 0.00 0.00 69
20260506045124 13 90 0.0 0.0 0.00 0.00 0.00 68
20260506044925 13 90 0.0 0.0 0.00 0.00 0.00 67
20260506044524 13 90 0.0 0.0 0.00 0.00 0.00 67
20260506043924 13 90 0.0 0.0 0.00 0.00 0.00 67
20260506043324 13 90 0.0 0.0 0.00 0.00 0.00 67
20260506042724 12 90 0.0 0.0 0.00 0.00 0.00 66
20260506042124 12 90 0.0 0.0 0.00 0.00 0.00 66
20260506041524 12 90 0.0 0.0 0.00 0.00 0.00 66
20260506040924 12 90 0.0 0.0 0.00 0.00 0.00 66
20260506040324 12 90 0.0 0.0 0.00 0.00 0.00 66
20260506035724 12 90 0.0 0.0 0.00 0.00 0.00 65
20260506035124 12 90 0.0 0.0 0.00 0.00 0.00 65
20260506034925 12 90 0.0 0.0 0.00 0.00 0.00 65
20260506034524 12 90 0.0 0.0 0.00 0.00 0.00 65
20260506033924 12 90 0.0 0.0 0.00 0.00 0.00 65
20260506033324 12 90 0.0 0.0 0.00 0.00 0.00 64
20260506032925 12 90 0.0 0.0 0.00 0.00 0.00 64
20260506032724 13 90 0.0 0.0 0.00 0.00 0.00 64
20260506032124 13 90 0.0 0.0 0.00 0.00 0.00 64
20260506031524 13 90 0.0 0.0 0.00 0.00 0.00 64
20260506030924 13 90 0.0 0.0 0.00 0.00 0.00 64
20260506030324 13 90 0.0 0.0 0.00 0.00 0.00 63
20260506025724 13 90 0.0 0.0 0.00 0.00 0.00 63
20260506025124 13 90 0.0 0.0 0.00 0.00 0.00 63
20260506024925 13 90 0.0 0.0 0.00 0.00 0.00 63
20260506024524 13 90 0.0 0.0 0.00 0.00 0.00 63
20260506023924 13 90 0.0 0.0 0.00 0.00 0.00 63
20260506023324 13 90 0.0 0.0 0.00 0.00 0.00 63
20260506022925 13 90 0.0 0.0 0.00 0.00 0.00 64
20260506022724 13 90 0.0 0.0 0.00 0.00 0.00 64
20260506022124 13 90 0.0 0.0 0.00 0.00 0.00 63
20260506021524 13 90 0.0 0.0 0.00 0.00 0.00 63
20260506020924 13 90 0.0 0.0 0.00 0.00 0.00 63
20260506020324 13 90 0.0 0.0 0.00 0.00 0.00 63
20260506015724 13 90 0.0 0.0 0.00 0.00 0.00 63
20260506015124 13 90 0.0 0.0 0.00 0.00 0.00 63
20260506014925 13 90 0.0 0.0 0.00 0.00 0.00 63
20260506014524 13 90 0.0 0.0 0.00 0.00 0.00 63
20260506013924 14 90 0.0 0.0 0.00 0.00 0.00 63
20260506013324 14 90 0.0 0.0 0.00 0.00 0.00 63
20260506012925 14 90 0.0 0.0 0.00 0.00 0.00 63
20260506012724 14 90 0.0 0.0 0.00 0.00 0.00 62
20260506012124 14 90 0.0 0.0 0.00 0.00 0.00 62
20260506011524 14 90 0.0 0.0 0.00 0.00 0.00 62
20260506010924 14 90 0.0 0.0 0.00 0.00 0.00 61
20260506010324 14 90 0.0 0.0 0.00 0.00 0.00 61
20260506005724 14 90 0.0 0.0 0.00 0.00 0.00 61
20260506005124 14 90 0.0 0.0 0.00 0.00 0.00 61
20260506004524 14 90 0.0 0.0 0.00 0.00 0.00 61
20260506003924 14 90 0.0 0.0 0.00 0.00 0.00 61
20260506003324 14 90 0.0 0.0 0.00 0.00 0.00 61
20260506002925 14 90 0.0 0.0 0.00 0.00 0.00 61
20260506002724 14 90 0.0 0.0 0.00 0.00 0.00 61
20260506002124 14 90 0.0 0.0 0.00 0.00 0.00 60
20260506001524 14 90 0.0 0.0 0.00 0.00 0.00 60
20260506000924 14 90 0.0 0.0 0.00 0.00 0.00 60
20260506000324 14 90 0.0 0.0 0.00 0.00 0.00 60
20260505235724 14 90 0.0 0.0 0.00 0.00 0.00 61
20260505235124 14 90 0.0 0.0 0.00 0.00 0.00 61
20260505234925 14 90 0.0 0.0 0.00 0.00 0.00 61
20260505234524 14 90 0.0 0.0 0.00 0.00 0.00 61
20260505233924 14 90 0.0 0.0 0.00 0.00 0.00 60
20260505233324 13 90 0.0 0.0 0.00 0.00 0.00 61
20260505232926 13 90 0.0 0.0 0.00 0.00 0.00 61
20260505232724 13 90 0.0 0.0 0.00 0.00 0.00 61
20260505232124 14 90 0.0 0.0 0.00 0.00 0.00 61
20260505231524 14 90 0.0 0.0 0.00 0.00 0.00 61
20260505230924 14 90 0.0 0.0 0.00 0.00 0.00 61
20260505230324 14 90 0.0 0.0 0.00 0.00 0.00 61
20260505225724 14 90 0.0 0.0 0.00 0.00 0.00 60
20260505225124 15 90 0.0 0.0 0.00 0.00 0.00 60
20260505224926 15 90 0.0 0.0 0.00 0.00 0.00 60
20260505224524 15 90 0.0 0.0 0.00 0.00 0.00 60
20260505223924 15 90 0.0 0.0 0.00 0.00 0.00 59
20260505223324 15 90 0.0 0.0 0.00 0.00 0.00 58
20260505222926 15 90 0.0 0.0 0.00 0.00 0.00 58
20260505222724 15 90 0.0 0.0 0.00 0.00 0.00 58
20260505222125 15 90 0.0 6.4 0.00 0.00 0.00 57
20260505221525 15 168 0.0 4.8 0.00 0.00 0.00 56
20260505220925 15 143 0.0 0.0 0.00 0.00 0.00 57
20260505220325 15 143 0.0 8.0 0.00 0.00 0.00 57